Location: Unspecified
(0.0000°N, 1.0000°E)
Time: 22:32:55
(UTC+02:00)

Amateur Radio Satellites - All Passes

Search period start: 24 October 2014 22:02
Search period end: 25 October 2014 22:02
Location: Unspecified, 0.0000°N, 1.0000°E

Satellite Date Start Highest point End Downlink Frequencies (MHz)
Time Altitude Azimuth
HO-68 24 Oct 22:21:22 22:28:26 64° 76° (ENE) 22:35:28 435.675 MHz FM
UKube-1 24 Oct 22:42:38 22:46:20 28° 78° (ENE) 22:50:01 145.840 MHz, 145.915 MHz
ISS 24 Oct 22:48:21 22:50:57 21° 54° (NE) 22:53:34 145.800 FM
MaSat-1 24 Oct 22:52:28 22:54:32 13° 108° (ESE) 22:56:35 437.345 MHz
KITSAT 1 24 Oct 23:06:06 23:12:15 24° 69° (ENE) 23:18:22 435.175 FM
RS-15 24 Oct 23:10:47 23:21:28 47° 290° (WNW) 23:31:49 29.354 - 29.394 USB, Beacon 29.352 USB
FUNcube-1 24 Oct 23:21:01 23:25:03 30° 78° (ENE) 23:29:02 145.950 - 145.970 MHz USB
Oscar 11 24 Oct 23:23:49 23:28:11 81° 258° (WSW) 23:32:30 145.825 FM, Beacon 2401.500 USB
SO-50 24 Oct 23:58:34 00:02:24 23° 68° (ENE) 00:06:13 436.795 FM
ZACube-1 25 Oct 00:11:54 00:16:23 51° 258° (WSW) 00:20:52 437.345 MHz
HO-68 25 Oct 00:12:55 00:15:45 13° 254° (WSW) 00:18:35 435.675 MHz FM
UKube-1 25 Oct 00:20:36 00:22:14 12° 257° (WSW) 00:23:52 145.840 MHz, 145.915 MHz
MaSat-1 25 Oct 00:26:09 00:30:00 28° 286° (WNW) 00:33:44 437.345 MHz
ISS 25 Oct 00:26:12 00:27:27 12° 234° (SW) 00:28:43 145.800 FM
FUNcube-1 25 Oct 00:59:02 01:01:07 13° 258° (WSW) 01:03:13 145.950 - 145.970 MHz USB
KITSAT 1 25 Oct 00:59:50 01:07:18 43° 250° (WSW) 01:14:49 435.175 FM
UOSAT-12 25 Oct 01:25:36 01:27:31 12° 67° (ENE) 01:29:26 437.025 FM, 437.400 FM
SO-50 25 Oct 01:39:12 01:42:43 20° 248° (WSW) 01:46:12 436.795 FM
Oscar 19 25 Oct 02:25:50 02:29:56 25° 103° (ESE) 02:34:03 437.125 CW, 437.150 USB
JAS-1B 25 Oct 02:28:06 02:35:25 36° 106° (ESE) 02:43:41 435.800 - 435.900 CW/SSB
AO-27 25 Oct 02:45:08 02:47:19 13° 103° (ESE) 02:49:31 436.795 MHz FM
Sapphire 25 Oct 02:48:52 02:51:44 15° 110° (ESE) 02:54:35 437.095 MHz 1200 baud AX-25 AFSK
UOSAT-12 25 Oct 03:03:26 03:07:25 30° 248° (WSW) 03:11:22 437.025 FM, 437.400 FM
AO-Echo 25 Oct 03:07:37 03:12:25 36° 102° (ESE) 03:17:08 ?
PCSat 25 Oct 03:09:39 03:14:17 29° 109° (ESE) 03:18:55 145.825 MHz
Oscar 16 25 Oct 03:10:30 03:15:36 88° 282° (WNW) 03:20:46 437.025 USB, Beacon 2401.1428
Uribyol 2 25 Oct 03:29:59 03:35:00 52° 103° (ESE) 03:40:00 436.500 FM
ITAMSAT 1 25 Oct 03:35:55 03:41:00 57° 103° (ESE) 03:46:05 435.822 SSB
Gurwin Techsat 1B 25 Oct 03:55:04 04:00:02 42° 103° (ESE) 04:05:01 435.225 FM
PANSAT 25 Oct 03:59:44 04:03:32 57° 150° (SSE) 04:07:19 not established
Oscar 19 25 Oct 04:05:23 04:09:00 20° 283° (WNW) 04:12:40 437.125 CW, 437.150 USB
TMSAT-1 25 Oct 04:06:29 04:11:22 38° 103° (ESE) 04:16:15 436.925 FM
JAS-1B 25 Oct 04:18:30 04:25:31 34° 281° (WNW) 04:33:35 435.800 - 435.900 CW/SSB
AO-27 25 Oct 04:21:45 04:26:33 39° 283° (WNW) 04:31:21 436.795 MHz FM
Sapphire 25 Oct 04:29:59 04:34:53 36° 289° (WNW) 04:39:47 437.095 MHz 1200 baud AX-25 AFSK
AO-Echo 25 Oct 04:48:08 04:50:51 14° 283° (WNW) 04:53:34 ?
PCSat 25 Oct 04:53:50 04:57:25 18° 290° (WNW) 05:01:01 145.825 MHz
Uosat F 25 Oct 04:55:37 04:56:56 11° 103° (ESE) 04:58:16 435.120 FM
Gurwin Techsat 1B 25 Oct 05:37:45 05:39:43 12° 283° (WNW) 05:41:41 435.225 FM
PANSAT 25 Oct 05:40:47 05:43:38 20° 331° (NNW) 05:46:29 not established
AO-7 25 Oct 05:46:36 05:54:55 77° 106° (ESE) 06:03:16 29.400 - 29.500 MHz
TMSAT-1 25 Oct 05:48:37 05:51:00 13° 283° (WNW) 05:53:23 436.925 FM
JAS-2 25 Oct 06:05:16 06:10:57 23° 102° (ESE) 06:16:20 435.800 - 435.900 CW/SSB, 435.910 FM
Uosat F 25 Oct 06:30:44 06:35:26 41° 283° (WNW) 06:40:08 435.120 FM
Saudisat 1A 25 Oct 06:34:09 06:37:23 20° 112° (ESE) 06:40:36 436.775 MHz
OPAL 25 Oct 06:55:08 07:00:21 78° 256° (WSW) 07:05:31 ?
Hamsat 25 Oct 07:41:41 07:45:46 49° 281° (W) 07:49:56 145.90 MHz
AO-7 25 Oct 07:44:16 07:47:14 12° 287° (WNW) 07:50:14 29.400 - 29.500 MHz
JAS-2 25 Oct 07:48:27 07:55:41 44° 284° (WNW) 08:02:29 435.800 - 435.900 CW/SSB, 435.910 FM
Saudisat 1A 25 Oct 08:13:47 08:16:41 17° 292° (WNW) 08:19:35 436.775 MHz
STRAND 1 25 Oct 08:39:53 08:44:57 64° 257° (WSW) 08:50:00 ?
RS-15 25 Oct 08:41:40 08:50:31 25° 69° (ENE) 08:59:32 29.354 - 29.394 USB, Beacon 29.352 USB
SO-67 25 Oct 08:53:09 08:56:29 51° 281° (W) 08:59:51 435.3500 MHz FM
HO-68 25 Oct 10:13:02 10:19:59 54° 105° (ESE) 10:26:55 435.675 MHz FM
ISS 25 Oct 10:24:34 10:26:25 14° 126° (SE) 10:28:17 145.800 FM
RS-15 25 Oct 10:51:07 11:02:28 59° 249° (WSW) 11:14:21 29.354 - 29.394 USB, Beacon 29.352 USB
UKube-1 25 Oct 10:51:55 10:55:56 37° 102° (ESE) 10:59:58 145.840 MHz, 145.915 MHz
KITSAT 1 25 Oct 11:13:23 11:20:20 32° 110° (ESE) 11:27:14 435.175 FM
FUNcube-1 25 Oct 11:31:44 11:35:35 38° 102° (ESE) 11:39:26 145.950 - 145.970 MHz USB
Oscar 11 25 Oct 11:32:59 11:37:12 58° 282° (WNW) 11:41:28 145.825 FM, Beacon 2401.500 USB
ISS 25 Oct 12:00:37 12:02:54 17° 306° (NW) 12:05:11 145.800 FM
HO-68 25 Oct 12:03:17 12:07:19 16° 285° (WNW) 12:11:22 435.675 MHz FM
MaSat-1 25 Oct 12:08:39 12:10:34 22° 252° (WSW) 12:12:34 437.345 MHz
SO-50 25 Oct 12:11:31 12:15:36 38° 112° (ESE) 12:19:42 436.795 FM
ZACube-1 25 Oct 12:23:22 12:27:05 33° 282° (WNW) 12:30:50 437.345 MHz
KITSAT 1 25 Oct 13:08:23 13:15:23 33° 290° (WNW) 13:22:24 435.175 FM
UOSAT-12 25 Oct 13:34:09 13:37:32 21° 112° (ESE) 13:40:57 437.025 FM, 437.400 FM
Oscar 16 25 Oct 14:07:43 14:10:32 15° 77° (ENE) 14:13:21 437.025 USB, Beacon 2401.1428
JAS-1B 25 Oct 14:41:26 14:47:47 36° 79° (E) 14:53:17 435.800 - 435.900 CW/SSB
Oscar 19 25 Oct 14:58:42 15:03:51 65° 78° (ENE) 15:08:57 437.125 CW, 437.150 USB
UOSAT-12 25 Oct 15:14:19 15:17:24 18° 293° (WNW) 15:20:32 437.025 FM, 437.400 FM
AO-27 25 Oct 15:17:54 15:22:34 34° 77° (ENE) 15:27:14 436.795 MHz FM
Sapphire 25 Oct 15:22:57 15:28:06 45° 71° (ENE) 15:33:15 437.095 MHz 1200 baud AX-25 AFSK
AO-Echo 25 Oct 15:36:40 15:41:23 81° 78° (ENE) 15:46:12 ?
Oscar 16 25 Oct 15:44:59 15:49:37 33° 257° (WSW) 15:54:13 437.025 USB, Beacon 2401.1428
PCSat 25 Oct 15:45:10 15:50:33 87° 251° (WSW) 15:55:58 145.825 MHz
PANSAT 25 Oct 15:46:57 15:50:43 59° 30° (NNE) 15:54:31 not established
Uribyol 2 25 Oct 16:04:51 16:09:58 58° 257° (WSW) 16:15:04 436.500 FM
ITAMSAT 1 25 Oct 16:11:04 16:16:07 53° 257° (WSW) 16:21:10 435.822 SSB
AO-7 25 Oct 16:25:10 16:29:04 14° 73° (ENE) 16:32:57 29.400 - 29.500 MHz
JAS-1B 25 Oct 16:33:02 16:37:57 20° 252° (WSW) 16:42:24 435.800 - 435.900 CW/SSB
Gurwin Techsat 1B 25 Oct 16:33:23 16:38:39 67° 258° (WSW) 16:43:54 435.225 FM
TMSAT-1 25 Oct 16:44:18 16:49:35 73° 258° (WSW) 16:54:51 436.925 FM
AO-27 25 Oct 16:59:04 17:01:48 14° 257° (WSW) 17:04:31 436.795 MHz FM
Sapphire 25 Oct 17:09:40 17:11:17 11° 250° (WSW) 17:12:53 437.095 MHz 1200 baud AX-25 AFSK
Uosat F 25 Oct 17:22:31 17:26:41 26° 77° (ENE) 17:30:49 435.120 FM
PANSAT 25 Oct 17:28:03 17:30:50 19° 209° (SSW) 17:33:38 not established
OPAL 25 Oct 17:50:37 17:53:20 15° 105° (ESE) 17:56:03 ?
AO-7 25 Oct 18:13:11 18:21:26 69° 254° (WSW) 18:29:38 29.400 - 29.500 MHz
Saudisat 1A 25 Oct 18:39:30 18:43:23 31° 68° (ENE) 18:47:16 436.775 MHz
Uosat F 25 Oct 19:01:56 19:05:11 18° 257° (WSW) 19:08:27 435.120 FM
JAS-2 25 Oct 19:21:41 19:26:56 72° 258° (WSW) 19:32:40 435.800 - 435.900 CW/SSB, 435.910 FM
OPAL 25 Oct 19:27:38 19:31:56 31° 284° (WNW) 19:36:17 ?
STRAND 1 25 Oct 19:35:10 19:38:46 19° 103° (ESE) 19:42:20 ?
Hamsat 25 Oct 19:49:09 19:53:08 38° 258° (WSW) 19:57:04 145.90 MHz
Saudisat 1A 25 Oct 20:21:17 20:22:42 11° 247° (WSW) 20:24:07 436.775 MHz
RS-15 25 Oct 20:25:54 20:33:23 20° 114° (ESE) 20:40:36 29.354 - 29.394 USB, Beacon 29.352 USB
SO-67 25 Oct 20:37:16 20:40:42 78° 80° (E) 20:44:07 435.3500 MHz FM
STRAND 1 25 Oct 21:13:32 21:17:40 25° 283° (WNW) 21:21:49 ?
